TimeCDT,TemperatureF,Dew PointF,Humidity,Sea Level PressureIn,VisibilityMPH,Wind Direction,Wind SpeedMPH,Gust SpeedMPH,PrecipitationIn,Events,Conditions,WindDirDegrees,DateUTC
12:58 AM,67.6,60.1,77,29.97,10.0,ESE,9.2,-,N/A,,Partly Cloudy,120,2013-07-21 05:58:00
1:58 AM,65.7,58.5,78,29.97,10.0,SE,9.2,-,N/A,,Mostly Cloudy,130,2013-07-21 06:58:00
2:58 AM,64.0,56.1,75,29.96,10.0,ESE,8.1,-,N/A,,Partly Cloudy,120,2013-07-21 07:58:00
3:58 AM,63.1,55.8,77,29.97,10.0,ESE,6.9,-,N/A,,Mostly Cloudy,110,2013-07-21 08:58:00
4:58 AM,61.0,56.5,85,29.96,10.0,ESE,5.8,-,N/A,,Clear,110,2013-07-21 09:58:00
5:58 AM,61.0,56.3,85,29.97,10.0,ESE,8.1,-,N/A,,Scattered Clouds,110,2013-07-21 10:58:00
6:58 AM,61.9,55.9,81,29.98,10.0,East,9.2,-,N/A,,Mostly Cloudy,100,2013-07-21 11:58:00
7:58 AM,62.2,56.3,81,29.98,10.0,ESE,9.2,-,N/A,,Clear,110,2013-07-21 12:58:00
8:06 AM,64.4,57.2,77,29.98,10.0,ESE,9.2,-,N/A,,Mostly Cloudy,120,2013-07-21 13:06:00
8:58 AM,66.2,57.2,73,29.97,10.0,SE,12.7,-,N/A,,Mostly Cloudy,130,2013-07-21 13:58:00
9:58 AM,69.8,59.0,68,29.97,10.0,SE,11.5,-,N/A,,Mostly Cloudy,130,2013-07-21 14:58:00
10:58 AM,69.8,60.8,73,29.97,10.0,SE,5.8,-,N/A,,Overcast,130,2013-07-21 15:58:00
11:26 AM,69.8,60.8,73,29.98,10.0,ESE,5.8,-,N/A,Thunderstorm,Overcast,110,2013-07-21 16:26:00
11:49 AM,69.8,60.8,73,29.97,10.0,East,4.6,-,N/A,,Overcast,90,2013-07-21 16:49:00
11:58 AM,69.8,60.8,73,29.97,10.0,NNE,3.5,-,N/A,Rain-Thunderstorm,Light Thunderstorms and Rain,30,2013-07-21 16:58:00
12:04 PM,69.8,62.6,78,29.99,3.0,NW,9.2,-,N/A,Rain-Thunderstorm,Light Thunderstorms and Rain,320,2013-07-21 17:04:00
12:10 PM,68.0,62.6,83,29.99,2.0,North,15.0,20.7,N/A,Rain-Thunderstorm,Thunderstorms and Rain,350,2013-07-21 17:10:00
12:35 PM,62.6,62.6,100,29.97,10.0,East,10.4,-,N/A,Rain-Thunderstorm,Light Thunderstorms and Rain,80,2013-07-21 17:35:00
12:55 PM,64.4,64.4,100,29.97,10.0,NE,6.9,-,N/A,Rain-Thunderstorm,Light Rain Showers,50,2013-07-21 17:55:00
12:58 PM,64.4,64.4,100,29.98,10.0,ENE,8.1,-,N/A,Rain-Thunderstorm,Light Rain Showers,60,2013-07-21 17:58:00
1:15 PM,64.4,64.4,100,29.97,4.0,North,8.1,-,N/A,Rain-Thunderstorm,Light Thunderstorms and Rain,10,2013-07-21 18:15:00
1:26 PM,64.4,64.4,100,30.00,1.5,North,8.1,-,N/A,Rain-Thunderstorm,Heavy Thunderstorms and Rain,350,2013-07-21 18:26:00
1:36 PM,64.4,64.4,100,30.01,1.5,NNW,8.1,-,N/A,Rain-Thunderstorm,Thunderstorms and Rain,340,2013-07-21 18:36:00
1:49 PM,62.6,62.6,100,29.98,3.0,Variable,5.8,-,N/A,Rain-Thunderstorm,Thunderstorms and Rain,0,2013-07-21 18:49:00
1:58 PM,62.6,62.6,100,30.00,6.0,Variable,3.5,-,N/A,Rain-Thunderstorm,Light Thunderstorms and Rain,0,2013-07-21 18:58:00
2:33 PM,62.6,62.6,100,29.97,7.0,East,4.6,-,N/A,Rain-Thunderstorm,Light Rain Showers,90,2013-07-21 19:33:00
2:58 PM,62.6,62.6,100,29.97,10.0,ESE,10.4,-,N/A,Rain,Light Rain Showers,110,2013-07-21 19:58:00
3:54 PM,64.4,64.4,100,29.92,5.0,ESE,9.2,-,N/A,Rain,Light Rain,120,2013-07-21 20:54:00
3:58 PM,64.2,64.2,100,29.93,6.0,SE,10.4,-,0.08,Rain,Light Rain,130,2013-07-21 20:58:00
4:02 PM,66.2,66.2,100,29.92,10.0,SE,11.5,-,N/A,Rain,Light Rain,130,2013-07-21 21:02:00
4:05 PM,66.2,66.2,100,29.92,10.0,SE,11.5,-,N/A,,Mostly Cloudy,130,2013-07-21 21:05:00
4:15 PM,68.0,66.2,94,29.91,10.0,SE,9.2,-,N/A,,Mostly Cloudy,130,2013-07-21 21:15:00
4:20 PM,68.0,66.2,94,29.91,10.0,ESE,10.4,-,N/A,,Mostly Cloudy,120,2013-07-21 21:20:00
4:35 PM,66.2,64.4,94,29.91,10.0,SSE,9.2,-,N/A,,Mostly Cloudy,150,2013-07-21 21:35:00
4:45 PM,66.2,64.4,94,29.91,10.0,SSE,9.2,-,N/A,,Mostly Cloudy,150,2013-07-21 21:45:00
4:50 PM,66.2,64.4,94,29.91,10.0,SSE,6.9,-,N/A,,Mostly Cloudy,150,2013-07-21 21:50:00
4:55 PM,66.2,64.4,94,29.91,10.0,SSE,12.7,-,N/A,,Mostly Cloudy,150,2013-07-21 21:55:00
4:58 PM,66.2,64.4,94,29.92,10.0,SSE,13.8,-,0.00,,Mostly Cloudy,150,2013-07-21 21:58:00
5:03 PM,66.2,64.4,94,29.91,10.0,SSE,13.8,-,N/A,,Mostly Cloudy,150,2013-07-21 22:03:00
5:58 PM,67.6,63.0,85,29.92,10.0,SE,4.6,-,N/A,,Partly Cloudy,140,2013-07-21 22:58:00
6:58 PM,68.0,63.3,85,29.93,10.0,ENE,4.6,-,N/A,,Partly Cloudy,70,2013-07-21 23:58:00
7:58 PM,66.9,63.9,90,29.93,10.0,ESE,5.8,-,N/A,,Scattered Clouds,110,2013-07-22 00:58:00
8:58 PM,65.3,63.7,94,29.93,10.0,East,5.8,-,N/A,,Overcast,100,2013-07-22 01:58:00
9:58 PM,61.5,61.5,100,29.91,10.0,East,4.6,-,N/A,,Clear,100,2013-07-22 02:58:00
10:48 PM,60.8,60.8,100,29.92,1.5,Calm,Calm,-,N/A,,Clear,0,2013-07-22 03:48:00
10:49 PM,60.8,60.8,100,29.92,1.2,Calm,Calm,-,N/A,,Partly Cloudy,0,2013-07-22 03:49:00
10:54 PM,60.8,60.8,100,29.92,0.8,Calm,Calm,-,N/A,,Mist,0,2013-07-22 03:54:00
10:58 PM,60.8,60.8,100,29.93,1.0,South,1.2,-,N/A,,Mist,190,2013-07-22 03:58:00
11:03 PM,59.0,59.0,100,29.92,4.0,SSE,2.3,-,N/A,,Scattered Clouds,160,2013-07-22 04:03:00
11:13 PM,60.8,60.8,100,29.92,9.0,North,-9999.0,-,N/A,,Mostly Cloudy,0,2013-07-22 04:13:00
11:18 PM,59.0,59.0,100,29.92,10.0,ESE,3.5,-,N/A,,Scattered Clouds,110,2013-07-22 04:18:00
11:23 PM,59.0,59.0,100,-9999,-9999.0,East,3.5,-,N/A,,Mostly Cloudy,90,2013-07-22 04:23:00
11:58 PM,-9999,-9999,N/A,29.91,-9999.0,East,3.5,-,N/A,,Mostly Cloudy,100,2013-07-22 04:58:00